{"data":{"norad_id":60379,"epoch":"2026-05-25T03:37:04.584864Z","epoch_age_seconds":61764,"freshness":"FRESH","line1":"1 60379U 24140A   26145.15074751  .00000091  00000+0  12189-3 0  9997","line2":"2 60379  88.9713 282.3204 0019596 103.1827 257.1512 13.51010561 89414","mean_motion":13.51010561,"eccentricity":0.0019596,"inclination_deg":88.9713,"raan_deg":282.3204,"arg_perigee_deg":103.1827,"mean_anomaly_deg":257.1512,"bstar":0.00012189,"rev_number":8941,"period_min":106.58687959731,"perigee_km":1053.9502636174,"apogee_km":1083.1352910006,"semimajor_km":7446.679777309,"source":"CELESTRAK","updated_at":"2026-05-25T13:38:02.037149Z"}}